This is the latest recevied weather packets stored in our database for station/object N5DGC. If no packets are shown the sender has not sent any weather packets the latest 10 day(s).
| Time | Temp. | Humidity | Pressure | Rain* | Wind** | Luminosity | Snow |
|---|---|---|---|---|---|---|---|
| 1777942598 | 22.78° C | 18% | 1228.9 hPa | 0 mm | - | 23 W/m² | - |
| 1777942295 | 22.78° C | 18% | 1228.9 hPa | 0 mm | - | 27 W/m² | - |
| 1777941992 | 22.78° C | 18% | 1228.7 hPa | 0 mm | - | 36 W/m² | - |
| 1777941689 | 22.78° C | 18% | 1228.7 hPa | 0 mm | - | 43 W/m² | - |
| 1777941386 | 22.78° C | 18% | 1229 hPa | 0 mm | - | 40 W/m² | - |
| 1777941084 | 22.78° C | 18% | 1229 hPa | 0 mm | - | 49 W/m² | - |
| 1777940779 | 23.33° C | 17% | 1229.1 hPa | 0 mm | - | 68 W/m² | - |
| 1777940478 | 23.33° C | 17% | 1229.2 hPa | 0 mm | - | 73 W/m² | - |
| 1777940175 | 23.33° C | 17% | 1229 hPa | 0 mm | - | 68 W/m² | - |
| 1777939873 | 23.33° C | 16% | 1229.1 hPa | 0 mm | - | 74 W/m² | - |
| 1777939569 | 23.33° C | 16% | 1229.2 hPa | 0 mm | - | 84 W/m² | - |
| 1777939267 | 23.33° C | 16% | 1229 hPa | 0 mm | - | 120 W/m² | - |
| 1777938963 | 23.33° C | 16% | 1229 hPa | 0 mm | - | 125 W/m² | - |
| 1777938660 | 23.33° C | 16% | 1229.1 hPa | 0 mm | - | 112 W/m² | - |
| 1777938357 | 23.33° C | 16% | 1229 hPa | 0 mm | - | 114 W/m² | - |
| 1777938054 | 23.33° C | 15% | 1229 hPa | 0 mm | - | 102 W/m² | - |
| 1777937749 | 23.33° C | 15% | 1229.1 hPa | 0 mm | - | 100 W/m² | - |
| 1777937446 | 23.33° C | 15% | 1229.2 hPa | 0 mm | - | 104 W/m² | - |
| 1777937143 | 23.33° C | 14% | 1229.3 hPa | 0 mm | - | 104 W/m² | - |
| 1777936841 | 23.89° C | 14% | 1229.3 hPa | 0 mm | - | 103 W/m² | - |
| 1777936537 | 23.89° C | 14% | 1229.2 hPa | 0 mm | - | 122 W/m² | - |
| 1777936233 | 23.89° C | 14% | 1229.3 hPa | 0 mm | - | 130 W/m² | - |
| 1777935930 | 23.89° C | 13% | 1229.4 hPa | 0 mm | - | 139 W/m² | - |
| 1777935629 | 23.89° C | 13% | 1229.1 hPa | 0 mm | - | 136 W/m² | - |
| 1777935326 | 23.89° C | 13% | 1229.3 hPa | 0 mm | - | 126 W/m² | - |
* Rain latest hour (hover to see other rain measurements)
** Current wind speed in m/s (hover to see current wind gust speed)